| time (UTC) | temp F | wind direction | speed MPH | gust MPH | rain 1hr in | rain 24hr in | rain mn in | humidity % | barometer mb |
| 20260506195516 | 63 | 158 | 5.0 | 10.0 | 0.00 | 0.00 | 0.00 | 84 | 1015.6 |
| 20260506195016 | 63 | 158 | 6.0 | 10.0 | 0.00 | 0.00 | 0.00 | 85 | 1015.6 |
| 20260506194516 | 63 | 158 | 6.0 | 11.0 | 0.00 | 0.00 | 0.00 | 85 | 1015.5 |
| 20260506194036 | 63 | 158 | 6.0 | 10.0 | 0.00 | 0.00 | 0.00 | 84 | 1015.5 |
| 20260506193516 | 63 | 158 | 5.0 | 9.0 | 0.00 | 0.00 | 0.00 | 84 | 1015.5 |
| 20260506193016 | 63 | 158 | 8.0 | 13.0 | 0.00 | 0.00 | 0.00 | 85 | 1015.5 |
| 20260506192516 | 63 | 158 | 5.0 | 10.0 | 0.00 | 0.00 | 0.00 | 85 | 1015.5 |
| 20260506192036 | 63 | 135 | 6.0 | 12.0 | 0.00 | 0.00 | 0.00 | 84 | 1015.5 |
| 20260506191516 | 63 | 158 | 4.0 | 10.0 | 0.00 | 0.00 | 0.00 | 84 | 1015.6 |
| 20260506191016 | 63 | 135 | 6.0 | 16.0 | 0.00 | 0.00 | 0.00 | 84 | 1015.6 |
| 20260506190516 | 63 | 158 | 6.0 | 13.0 | 0.00 | 0.00 | 0.00 | 84 | 1015.6 |
| 20260506190016 | 63 | 158 | 5.0 | 10.0 | 0.00 | 0.00 | 0.00 | 84 | 1015.6 |
| 20260506185536 | 63 | 158 | 8.0 | 16.0 | 0.00 | 0.00 | 0.00 | 84 | 1015.6 |
| 20260506185016 | 63 | 158 | 7.0 | 13.0 | 0.00 | 0.00 | 0.00 | 84 | 1015.5 |
| 20260506184516 | 63 | 158 | 7.0 | 14.0 | 0.00 | 0.00 | 0.00 | 84 | 1015.3 |
| 20260506184016 | 63 | 158 | 5.0 | 10.0 | 0.00 | 0.00 | 0.00 | 84 | 1015.4 |
| 20260506183516 | 63 | 180 | 7.0 | 13.0 | 0.00 | 0.00 | 0.00 | 83 | 1015.2 |
| 20260506183016 | 63 | 158 | 5.0 | 11.0 | 0.00 | 0.00 | 0.00 | 83 | 1015.0 |
| 20260506182516 | 63 | 158 | 5.0 | 10.0 | 0.00 | 0.00 | 0.00 | 83 | 1015.0 |
| 20260506182036 | 63 | 135 | 6.0 | 11.0 | 0.00 | 0.00 | 0.00 | 83 | 1015.2 |
| 20260506181518 | 63 | 180 | 6.0 | 13.0 | 0.00 | 0.00 | 0.00 | 83 | 1015.0 |
| 20260506181018 | 63 | 158 | 7.0 | 13.0 | 0.00 | 0.00 | 0.00 | 84 | 1015.0 |
| 20260506180538 | 63 | 158 | 6.0 | 11.0 | 0.00 | 0.00 | 0.00 | 83 | 1014.9 |
| 20260506180018 | 63 | 180 | 5.0 | 7.0 | 0.00 | 0.00 | 0.00 | 84 | 1014.8 |
| 20260506175518 | 63 | 180 | 6.0 | 11.0 | 0.00 | 0.00 | 0.00 | 83 | 1014.9 |
| 20260506175038 | 63 | 180 | 7.0 | 15.0 | 0.00 | 0.00 | 0.00 | 83 | 1014.8 |
| 20260506174518 | 63 | 158 | 7.0 | 13.0 | 0.00 | 0.00 | 0.00 | 83 | 1014.6 |
| 20260506174018 | 63 | 158 | 4.0 | 9.0 | 0.00 | 0.00 | 0.00 | 83 | 1014.6 |
| 20260506173518 | 63 | 180 | 4.0 | 6.0 | 0.00 | 0.00 | 0.00 | 83 | 1014.6 |
| 20260506173018 | 64 | 158 | 7.0 | 11.0 | 0.00 | 0.00 | 0.00 | 83 | 1014.5 |
| 20260506172518 | 64 | 158 | 4.0 | 7.0 | 0.00 | 0.00 | 0.00 | 83 | 1014.5 |
| 20260506172018 | 64 | 203 | 4.0 | 10.0 | 0.00 | 0.00 | 0.00 | 83 | 1014.5 |
| 20260506171517 | 64 | 158 | 4.0 | 7.0 | 0.00 | 0.00 | 0.00 | 83 | 1014.6 |
| 20260506171038 | 64 | 158 | 6.0 | 11.0 | 0.00 | 0.00 | 0.00 | 83 | 1014.7 |
| 20260506170518 | 64 | 180 | 6.0 | 11.0 | 0.00 | 0.00 | 0.00 | 83 | 1014.8 |
| 20260506170018 | 64 | 180 | 7.0 | 12.0 | 0.00 | 0.00 | 0.00 | 83 | 1014.9 |
| 20260506165518 | 64 | 180 | 7.0 | 12.0 | 0.00 | 0.00 | 0.00 | 83 | 1014.8 |
| 20260506165018 | 64 | 158 | 8.0 | 14.0 | 0.00 | 0.00 | 0.00 | 83 | 1015.0 |
| 20260506164518 | 64 | 158 | 7.0 | 13.0 | 0.00 | 0.00 | 0.00 | 83 | 1014.9 |
| 20260506164058 | 64 | 158 | 8.0 | 14.0 | 0.00 | 0.00 | 0.00 | 83 | 1014.9 |
| 20260506163517 | 64 | 135 | 6.0 | 11.0 | 0.00 | 0.00 | 0.00 | 83 | 1015.0 |
| 20260506163017 | 64 | 135 | 6.0 | 13.0 | 0.00 | 0.00 | 0.00 | 83 | 1015.0 |
| 20260506162517 | 64 | 158 | 6.0 | 12.0 | 0.00 | 0.00 | 0.00 | 83 | 1015.1 |
| 20260506162018 | 64 | 135 | 8.0 | 13.0 | 0.00 | 0.00 | 0.00 | 82 | 1015.0 |
| 20260506161517 | 64 | 135 | 8.0 | 12.0 | 0.00 | 0.00 | 0.00 | 82 | 1015.1 |
| 20260506161018 | 64 | 135 | 7.0 | 12.0 | 0.00 | 0.00 | 0.00 | 82 | 1015.3 |
| 20260506160517 | 64 | 135 | 6.0 | 13.0 | 0.00 | 0.00 | 0.00 | 82 | 1015.4 |
| 20260506160017 | 64 | 158 | 8.0 | 15.0 | 0.00 | 0.00 | 0.00 | 82 | 1015.4 |
| 20260506155518 | 64 | 135 | 7.0 | 14.0 | 0.00 | 0.00 | 0.00 | 81 | 1015.4 |
| 20260506155038 | 64 | 135 | 6.0 | 11.0 | 0.00 | 0.00 | 0.00 | 81 | 1015.4 |
| 20260506154517 | 65 | 135 | 6.0 | 15.0 | 0.00 | 0.00 | 0.00 | 81 | 1015.4 |
| 20260506154018 | 64 | 135 | 8.0 | 13.0 | 0.00 | 0.00 | 0.00 | 81 | 1015.5 |
| 20260506153517 | 64 | 135 | 9.0 | 15.0 | 0.00 | 0.00 | 0.00 | 81 | 1015.5 |
| 20260506153018 | 64 | 158 | 9.0 | 17.0 | 0.00 | 0.00 | 0.00 | 81 | 1015.5 |
| 20260506152517 | 65 | 135 | 6.0 | 14.0 | 0.00 | 0.00 | 0.00 | 81 | 1015.5 |
| 20260506152018 | 65 | 135 | 7.0 | 11.0 | 0.00 | 0.00 | 0.00 | 81 | 1015.5 |
| 20260506151517 | 65 | 135 | 10.0 | 16.0 | 0.00 | 0.00 | 0.00 | 80 | 1015.5 |
| 20260506151017 | 65 | 135 | 8.0 | 14.0 | 0.00 | 0.00 | 0.00 | 80 | 1015.6 |
| 20260506150537 | 65 | 135 | 11.0 | 21.0 | 0.00 | 0.00 | 0.00 | 80 | 1015.4 |
| 20260506150017 | 66 | 135 | 10.0 | 17.0 | 0.00 | 0.00 | 0.00 | 79 | 1015.3 |
| 20260506145517 | 65 | 180 | 9.0 | 17.0 | 0.00 | 0.00 | 0.00 | 78 | 1015.3 |
| 20260506145017 | 66 | 158 | 10.0 | 18.0 | 0.00 | 0.00 | 0.00 | 78 | 1015.5 |
| 20260506144517 | 65 | 135 | 11.0 | 19.0 | 0.00 | 0.00 | 0.00 | 78 | 1015.4 |
| 20260506144017 | 66 | 158 | 10.0 | 15.0 | 0.00 | 0.00 | 0.00 | 79 | 1015.4 |
| 20260506143517 | 65 | 135 | 9.0 | 17.0 | 0.00 | 0.00 | 0.00 | 80 | 1015.2 |
| 20260506143017 | 65 | 158 | 10.0 | 17.0 | 0.00 | 0.00 | 0.00 | 80 | 1015.2 |
| 20260506142518 | 65 | 158 | 10.0 | 18.0 | 0.00 | 0.00 | 0.00 | 79 | 1015.0 |
| 20260506142017 | 65 | 158 | 9.0 | 17.0 | 0.00 | 0.00 | 0.00 | 79 | 1015.0 |
| 20260506141517 | 66 | 158 | 9.0 | 18.0 | 0.00 | 0.00 | 0.00 | 78 | 1015.0 |
| 20260506141017 | 65 | 135 | 9.0 | 17.0 | 0.00 | 0.00 | 0.00 | 79 | 1015.0 |
| 20260506140517 | 65 | 135 | 12.0 | 21.0 | 0.00 | 0.00 | 0.00 | 79 | 1015.2 |
| 20260506140017 | 65 | 135 | 12.0 | 21.0 | 0.00 | 0.00 | 0.00 | 79 | 1015.2 |
| 20260506135517 | 66 | 135 | 10.0 | 22.0 | 0.00 | 0.00 | 0.00 | 78 | 1015.3 |
| 20260506135037 | 66 | 158 | 10.0 | 17.0 | 0.00 | 0.00 | 0.00 | 79 | 1015.2 |
| 20260506134518 | 65 | 135 | 11.0 | 19.0 | 0.00 | 0.00 | 0.00 | 79 | 1015.3 |
| 20260506134017 | 66 | 135 | 11.0 | 17.0 | 0.00 | 0.00 | 0.00 | 78 | 1015.2 |
| 20260506133518 | 66 | 135 | 11.0 | 18.0 | 0.00 | 0.00 | 0.00 | 78 | 1015.3 |
| 20260506133017 | 66 | 135 | 11.0 | 18.0 | 0.00 | 0.00 | 0.00 | 78 | 1015.3 |
| 20260506132557 | 66 | 158 | 10.0 | 19.0 | 0.00 | 0.00 | 0.00 | 78 | 1015.4 |
| 20260506132037 | 66 | 135 | 11.0 | 20.0 | 0.00 | 0.00 | 0.00 | 78 | 1015.4 |
| 20260506131517 | 66 | 135 | 12.0 | 19.0 | 0.00 | 0.00 | 0.00 | 78 | 1015.4 |
| 20260506131017 | 66 | 135 | 11.0 | 23.0 | 0.00 | 0.00 | 0.00 | 78 | 1015.5 |
| 20260506130537 | 67 | 158 | 10.0 | 21.0 | 0.00 | 0.00 | 0.00 | 77 | 1015.5 |
| 20260506130017 | 66 | 158 | 12.0 | 20.0 | 0.00 | 0.00 | 0.00 | 79 | 1015.6 |
| 20260506125517 | 65 | 135 | 11.0 | 18.0 | 0.00 | 0.00 | 0.00 | 78 | 1015.6 |
| 20260506125017 | 66 | 135 | 12.0 | 22.0 | 0.00 | 0.00 | 0.00 | 78 | 1015.6 |
| 20260506124537 | 66 | 135 | 12.0 | 21.0 | 0.00 | 0.00 | 0.00 | 78 | 1015.6 |
| 20260506124017 | 66 | 158 | 10.0 | 21.0 | 0.00 | 0.00 | 0.00 | 78 | 1015.8 |
| 20260506123517 | 66 | 135 | 13.0 | 24.0 | 0.00 | 0.00 | 0.00 | 79 | 1015.7 |
| 20260506123017 | 66 | 135 | 12.0 | 24.0 | 0.00 | 0.00 | 0.00 | 78 | 1015.7 |
| 20260506122537 | 66 | 158 | 11.0 | 22.0 | 0.00 | 0.00 | 0.00 | 77 | 1015.9 |
| 20260506122017 | 66 | 135 | 9.0 | 19.0 | 0.00 | 0.00 | 0.00 | 78 | 1015.9 |
| 20260506121517 | 66 | 135 | 10.0 | 19.0 | 0.00 | 0.00 | 0.00 | 78 | 1015.7 |
| 20260506121017 | 66 | 135 | 10.0 | 16.0 | 0.00 | 0.00 | 0.00 | 78 | 1015.8 |
| 20260506120517 | 66 | 135 | 11.0 | 19.0 | 0.00 | 0.00 | 0.00 | 78 | 1015.8 |
| 20260506120017 | 66 | 135 | 10.0 | 18.0 | 0.00 | 0.00 | 0.00 | 78 | 1015.7 |
| 20260506115537 | 66 | 158 | 8.0 | 16.0 | 0.00 | 0.00 | 0.00 | 78 | 1015.6 |
| 20260506115017 | 66 | 158 | 11.0 | 19.0 | 0.00 | 0.00 | 0.00 | 78 | 1015.8 |
| 20260506114517 | 66 | 158 | 12.0 | 20.0 | 0.00 | 0.00 | 0.00 | 77 | 1015.9 |
| 20260506114037 | 66 | 135 | 11.0 | 18.0 | 0.00 | 0.00 | 0.00 | 78 | 1016.0 |
| 20260506113517 | 66 | 135 | 11.0 | 19.0 | 0.00 | 0.00 | 0.00 | 77 | 1016.0 |
| 20260506113017 | 66 | 135 | 11.0 | 19.0 | 0.00 | 0.00 | 0.00 | 77 | 1016.0 |
| 20260506112517 | 66 | 135 | 12.0 | 20.0 | 0.00 | 0.00 | 0.00 | 77 | 1016.2 |
| 20260506112017 | 66 | 135 | 11.0 | 18.0 | 0.00 | 0.00 | 0.00 | 78 | 1016.0 |
| 20260506111517 | 66 | 135 | 11.0 | 17.0 | 0.00 | 0.00 | 0.00 | 79 | 1016.1 |
| 20260506111017 | 66 | 135 | 11.0 | 18.0 | 0.00 | 0.00 | 0.00 | 79 | 1016.1 |
| 20260506110517 | 66 | 158 | 12.0 | 18.0 | 0.00 | 0.00 | 0.00 | 79 | 1016.1 |
| 20260506110017 | 66 | 158 | 11.0 | 19.0 | 0.00 | 0.00 | 0.00 | 79 | 1016.3 |
| 20260506105517 | 66 | 135 | 11.0 | 18.0 | 0.00 | 0.00 | 0.00 | 80 | 1016.2 |
| 20260506105017 | 66 | 135 | 12.0 | 20.0 | 0.00 | 0.00 | 0.00 | 81 | 1016.1 |
| 20260506104517 | 66 | 113 | 12.0 | 18.0 | 0.00 | 0.00 | 0.00 | 81 | 1016.1 |
| 20260506104017 | 66 | 135 | 11.0 | 21.0 | 0.00 | 0.00 | 0.00 | 81 | 1016.2 |
| 20260506103537 | 66 | 135 | 11.0 | 17.0 | 0.00 | 0.00 | 0.00 | 81 | 1016.2 |
| 20260506103017 | 65 | 135 | 11.0 | 19.0 | 0.00 | 0.00 | 0.00 | 83 | 1016.4 |
| 20260506102517 | 65 | 135 | 11.0 | 21.0 | 0.00 | 0.00 | 0.00 | 82 | 1016.4 |
| 20260506102017 | 65 | 135 | 12.0 | 18.0 | 0.00 | 0.00 | 0.00 | 81 | 1016.5 |
| 20260506101517 | 65 | 135 | 10.0 | 19.0 | 0.00 | 0.00 | 0.00 | 81 | 1016.4 |
| 20260506101016 | 65 | 158 | 8.0 | 17.0 | 0.00 | 0.00 | 0.00 | 81 | 1016.4 |
| 20260506100536 | 65 | 135 | 10.0 | 17.0 | 0.00 | 0.00 | 0.00 | 80 | 1016.5 |
| 20260506100036 | 65 | 135 | 10.0 | 15.0 | 0.00 | 0.00 | 0.00 | 80 | 1016.5 |
| 20260506095516 | 65 | 135 | 11.0 | 17.0 | 0.00 | 0.00 | 0.00 | 79 | 1016.4 |
| 20260506095017 | 66 | 135 | 10.0 | 17.0 | 0.00 | 0.00 | 0.00 | 79 | 1016.4 |
| 20260506094516 | 66 | 158 | 8.0 | 17.0 | 0.00 | 0.00 | 0.00 | 79 | 1016.4 |
| 20260506094016 | 65 | 135 | 9.0 | 16.0 | 0.00 | 0.00 | 0.00 | 79 | 1016.3 |
| 20260506093557 | 65 | 135 | 7.0 | 13.0 | 0.00 | 0.00 | 0.00 | 81 | 1016.3 |
| 20260506093017 | 65 | 135 | 7.0 | 14.0 | 0.00 | 0.00 | 0.00 | 81 | 1016.4 |
| 20260506092517 | 64 | 158 | 6.0 | 10.0 | 0.00 | 0.00 | 0.00 | 82 | 1016.3 |
| 20260506092016 | 64 | 158 | 7.0 | 11.0 | 0.00 | 0.00 | 0.00 | 82 | 1016.4 |
| 20260506091517 | 64 | 158 | 8.0 | 13.0 | 0.00 | 0.00 | 0.00 | 81 | 1016.4 |
| 20260506091016 | 64 | 135 | 8.0 | 14.0 | 0.00 | 0.00 | 0.00 | 80 | 1016.1 |
| 20260506090517 | 65 | 113 | 7.0 | 13.0 | 0.00 | 0.00 | 0.00 | 79 | 1015.8 |
| 20260506090016 | 65 | 135 | 9.0 | 14.0 | 0.00 | 0.00 | 0.00 | 78 | 1016.1 |
| 20260506085557 | 65 | 135 | 8.0 | 14.0 | 0.00 | 0.00 | 0.00 | 78 | 1016.2 |
| 20260506085017 | 66 | 135 | 8.0 | 14.0 | 0.00 | 0.00 | 0.00 | 77 | 1016.1 |
| 20260506084516 | 66 | 135 | 6.0 | 12.0 | 0.00 | 0.00 | 0.00 | 78 | 1016.3 |
| 20260506084016 | 65 | 158 | 8.0 | 14.0 | 0.00 | 0.00 | 0.00 | 78 | 1016.4 |
| 20260506083537 | 65 | 135 | 8.0 | 16.0 | 0.00 | 0.00 | 0.00 | 80 | 1016.3 |
| 20260506083017 | 65 | 135 | 9.0 | 13.0 | 0.00 | 0.00 | 0.00 | 80 | 1016.3 |
| 20260506082517 | 65 | 113 | 9.0 | 14.0 | 0.00 | 0.00 | 0.00 | 81 | 1016.3 |
| 20260506082016 | 65 | 135 | 8.0 | 14.0 | 0.00 | 0.00 | 0.00 | 81 | 1016.3 |
| 20260506081516 | 65 | 135 | 8.0 | 12.0 | 0.00 | 0.00 | 0.00 | 80 | 1016.4 |
| 20260506081016 | 65 | 135 | 5.0 | 11.0 | 0.00 | 0.00 | 0.00 | 80 | 1016.4 |
| 20260506080516 | 65 | 135 | 7.0 | 12.0 | 0.00 | 0.00 | 0.00 | 79 | 1016.4 |
| 20260506073516 | 64 | 135 | 8.0 | 14.0 | 0.00 | 0.00 | 0.00 | 82 | 1016.4 |
| 20260506073016 | 64 | 158 | 9.0 | 14.0 | 0.00 | 0.00 | 0.00 | 82 | 1016.4 |
| 20260506072516 | 64 | 135 | 8.0 | 16.0 | 0.00 | 0.00 | 0.00 | 82 | 1016.4 |
| 20260506072016 | 64 | 135 | 8.0 | 15.0 | 0.00 | 0.00 | 0.00 | 81 | 1016.6 |
| 20260506071516 | 64 | 135 | 7.0 | 13.0 | 0.00 | 0.00 | 0.00 | 82 | 1016.5 |
| 20260506071016 | 64 | 135 | 8.0 | 15.0 | 0.00 | 0.00 | 0.00 | 81 | 1016.5 |
| 20260506070537 | 65 | 158 | 7.0 | 14.0 | 0.00 | 0.00 | 0.00 | 80 | 1016.5 |
| 20260506062516 | 64 | 135 | 5.0 | 9.0 | 0.00 | 0.00 | 0.00 | 81 | 1016.2 |
| 20260506062016 | 64 | 135 | 6.0 | 11.0 | 0.00 | 0.00 | 0.00 | 81 | 1016.3 |
| 20260506061516 | 64 | 135 | 6.0 | 10.0 | 0.00 | 0.00 | 0.00 | 81 | 1016.2 |
| 20260506061016 | 64 | 158 | 5.0 | 11.0 | 0.00 | 0.00 | 0.00 | 80 | 1016.0 |
| 20260506060516 | 64 | 158 | 5.0 | 13.0 | 0.00 | 0.00 | 0.00 | 80 | 1015.9 |
| 20260506051016 | 62 | 180 | 5.0 | 9.0 | 0.00 | 0.00 | 0.00 | 82 | 1015.7 |
| 20260506050536 | 62 | 158 | 5.0 | 10.0 | 0.00 | 0.00 | 0.00 | 82 | 1015.6 |
| 20260506045016 | 62 | 158 | 4.0 | 8.0 | 0.00 | 0.00 | 0.00 | 81 | 1015.6 |
| 20260506044516 | 62 | 180 | 5.0 | 9.0 | 0.00 | 0.00 | 0.00 | 81 | 1015.6 |
| 20260506044018 | 62 | 158 | 5.0 | 9.0 | 0.00 | 0.00 | 0.00 | 82 | 1015.5 |
| 20260506043518 | 62 | 180 | 4.0 | 11.0 | 0.00 | 0.00 | 0.00 | 81 | 1015.5 |
| 20260506043018 | 62 | 180 | 6.0 | 13.0 | 0.00 | 0.00 | 0.00 | 81 | 1015.5 |
| 20260506042538 | 62 | 135 | 5.0 | 9.0 | 0.00 | 0.00 | 0.00 | 81 | 1015.5 |
| 20260506042038 | 62 | 135 | 3.0 | 7.0 | 0.00 | 0.00 | 0.00 | 81 | 1015.4 |
| 20260506041518 | 62 | 158 | 4.0 | 6.0 | 0.00 | 0.00 | 0.00 | 81 | 1015.4 |
| 20260506041018 | 62 | 158 | 3.0 | 9.0 | 0.00 | 0.00 | 0.00 | 81 | 1015.4 |
| 20260506040518 | 62 | 158 | 5.0 | 10.0 | 0.00 | 0.00 | 0.00 | 81 | 1015.4 |
| 20260506040018 | 62 | 180 | 5.0 | 11.0 | 0.00 | 0.00 | 0.00 | 80 | 1015.4 |
| 20260506035518 | 62 | 180 | 5.0 | 10.0 | 0.00 | 0.00 | 0.00 | 80 | 1015.4 |
| 20260506035018 | 62 | 203 | 4.0 | 9.0 | 0.00 | 0.00 | 0.00 | 80 | 1015.4 |
| 20260506034518 | 62 | 180 | 5.0 | 11.0 | 0.00 | 0.00 | 0.00 | 79 | 1015.3 |
| 20260506034038 | 62 | 180 | 4.0 | 9.0 | 0.00 | 0.00 | 0.00 | 79 | 1015.3 |
| 20260506033518 | 62 | 180 | 5.0 | 11.0 | 0.00 | 0.00 | 0.00 | 79 | 1015.3 |
| 20260506033018 | 62 | 158 | 5.0 | 11.0 | 0.00 | 0.00 | 0.00 | 80 | 1015.3 |
| 20260506032518 | 62 | 158 | 3.0 | 6.0 | 0.00 | 0.00 | 0.00 | 80 | 1015.1 |
| 20260506032018 | 62 | 180 | 3.0 | 6.0 | 0.00 | 0.00 | 0.00 | 80 | 1015.1 |
| 20260506031517 | 62 | 158 | 5.0 | 10.0 | 0.00 | 0.00 | 0.00 | 80 | 1015.0 |
| 20260506031017 | 62 | 158 | 3.0 | 6.0 | 0.00 | 0.00 | 0.00 | 80 | 1015.1 |
| 20260506030518 | 62 | 158 | 5.0 | 12.0 | 0.00 | 0.00 | 0.00 | 80 | 1015.1 |
| 20260506030018 | 62 | 180 | 3.0 | 5.0 | 0.00 | 0.00 | 0.00 | 80 | 1015.2 |
| 20260506025518 | 62 | 180 | 4.0 | 9.0 | 0.00 | 0.00 | 0.00 | 80 | 1015.2 |
| 20260506025017 | 62 | 180 | 3.0 | 6.0 | 0.00 | 0.00 | 0.00 | 80 | 1015.2 |
| 20260506024517 | 62 | 180 | 4.0 | 6.0 | 0.00 | 0.00 | 0.00 | 80 | 1015.2 |
| 20260506024017 | 62 | 180 | 3.0 | 6.0 | 0.00 | 0.00 | 0.00 | 79 | 1015.2 |
| 20260506023518 | 62 | 180 | 2.0 | 5.0 | 0.00 | 0.00 | 0.00 | 79 | 1015.2 |
| 20260506023017 | 62 | 158 | 4.0 | 7.0 | 0.00 | 0.00 | 0.00 | 79 | 1015.2 |
| 20260506022538 | 62 | 180 | 4.0 | 12.0 | 0.00 | 0.00 | 0.00 | 79 | 1015.2 |
| 20260506022018 | 62 | 180 | 3.0 | 5.0 | 0.00 | 0.00 | 0.00 | 79 | 1015.2 |
| 20260506021518 | 62 | 158 | 4.0 | 7.0 | 0.00 | 0.00 | 0.00 | 79 | 1015.3 |
| 20260506021018 | 62 | 180 | 4.0 | 11.0 | 0.00 | 0.00 | 0.00 | 79 | 1015.4 |
| 20260506020517 | 62 | 180 | 3.0 | 9.0 | 0.00 | 0.00 | 0.00 | 79 | 1015.4 |
| 20260506020017 | 62 | 158 | 3.0 | 6.0 | 0.00 | 0.00 | 0.00 | 78 | 1015.4 |
| 20260506015517 | 63 | 158 | 3.0 | 6.0 | 0.00 | 0.00 | 0.00 | 78 | 1015.5 |
| 20260506015017 | 63 | 158 | 4.0 | 7.0 | 0.00 | 0.00 | 0.00 | 78 | 1015.5 |
| 20260506014518 | 63 | 158 | 3.0 | 6.0 | 0.00 | 0.00 | 0.00 | 78 | 1015.7 |
| 20260506014017 | 63 | 158 | 4.0 | 7.0 | 0.00 | 0.00 | 0.00 | 78 | 1015.5 |
| 20260506013518 | 63 | 158 | 3.0 | 5.0 | 0.00 | 0.00 | 0.00 | 78 | 1015.6 |
| 20260506013018 | 63 | 158 | 5.0 | 9.0 | 0.00 | 0.00 | 0.00 | 78 | 1015.6 |
| 20260506012538 | 63 | 158 | 5.0 | 10.0 | 0.00 | 0.00 | 0.00 | 78 | 1015.6 |
| 20260506012018 | 63 | 180 | 5.0 | 11.0 | 0.00 | 0.00 | 0.00 | 78 | 1015.8 |
| 20260506011517 | 63 | 203 | 6.0 | 13.0 | 0.00 | 0.00 | 0.00 | 78 | 1015.8 |
| 20260506011017 | 63 | 180 | 2.0 | 5.0 | 0.00 | 0.00 | 0.00 | 78 | 1015.8 |
| 20260506010517 | 63 | 180 | 5.0 | 11.0 | 0.00 | 0.00 | 0.00 | 79 | 1015.9 |
| 20260506010017 | 63 | 158 | 5.0 | 11.0 | 0.00 | 0.00 | 0.00 | 79 | 1015.9 |
| 20260506005517 | 63 | 180 | 4.0 | 10.0 | 0.00 | 0.00 | 0.00 | 79 | 1015.9 |
| 20260506005017 | 62 | 158 | 4.0 | 7.0 | 0.00 | 0.00 | 0.00 | 79 | 1016.0 |
| 20260506004518 | 62 | 158 | 6.0 | 13.0 | 0.00 | 0.00 | 0.00 | 80 | 1016.0 |
| 20260506004017 | 62 | 158 | 4.0 | 10.0 | 0.00 | 0.00 | 0.00 | 80 | 1016.0 |
| 20260506003517 | 62 | 158 | 6.0 | 12.0 | 0.00 | 0.00 | 0.00 | 80 | 1016.0 |
| 20260506003037 | 62 | 158 | 4.0 | 7.0 | 0.00 | 0.00 | 0.00 | 81 | 1016.0 |
| 20260506002517 | 62 | 158 | 4.0 | 11.0 | 0.00 | 0.00 | 0.00 | 81 | 1016.0 |
| 20260506002017 | 62 | 158 | 4.0 | 12.0 | 0.00 | 0.00 | 0.00 | 81 | 1016.1 |
| 20260506001517 | 62 | 180 | 4.0 | 13.0 | 0.00 | 0.00 | 0.00 | 81 | 1016.1 |
| 20260506001102 | 62 | 180 | 4.0 | 10.0 | 0.00 | 0.00 | 0.00 | 81 | 1016.1 |
| 20260506000017 | 62 | 158 | 6.0 | 13.0 | 0.00 | 0.00 | 0.00 | 81 | 1016.2 |
| 20260505235537 | 62 | 158 | 6.0 | 13.0 | 0.00 | 0.00 | 0.00 | 81 | 1016.1 |
| 20260505235017 | 62 | 158 | 5.0 | 12.0 | 0.00 | 0.00 | 0.00 | 81 | 1016.2 |
| 20260505234517 | 62 | 180 | 4.0 | 7.0 | 0.00 | 0.00 | 0.00 | 80 | 1016.1 |
| 20260505234017 | 62 | 158 | 7.0 | 13.0 | 0.00 | 0.00 | 0.00 | 80 | 1016.3 |
| 20260505233517 | 62 | 203 | 3.0 | 5.0 | 0.00 | 0.00 | 0.00 | 80 | 1016.3 |
| 20260505233037 | 62 | 203 | 4.0 | 8.0 | 0.00 | 0.00 | 0.00 | 80 | 1016.3 |
| 20260505232517 | 62 | 180 | 6.0 | 11.0 | 0.00 | 0.00 | 0.00 | 80 | 1016.3 |
| 20260505232037 | 62 | 158 | 5.0 | 10.0 | 0.00 | 0.00 | 0.00 | 81 | 1016.3 |
| 20260505231517 | 62 | 135 | 4.0 | 9.0 | 0.00 | 0.00 | 0.00 | 81 | 1016.4 |
| 20260505231017 | 62 | 180 | 4.0 | 7.0 | 0.00 | 0.00 | 0.00 | 81 | 1016.5 |
| 20260505230517 | 62 | 180 | 2.0 | 4.0 | 0.00 | 0.00 | 0.00 | 80 | 1016.5 |
| 20260505230017 | 62 | 180 | 3.0 | 7.0 | 0.00 | 0.00 | 0.00 | 81 | 1016.5 |
| 20260505225517 | 62 | 158 | 3.0 | 6.0 | 0.00 | 0.00 | 0.00 | 81 | 1016.5 |
| 20260505225017 | 62 | 158 | 4.0 | 7.0 | 0.00 | 0.00 | 0.00 | 80 | 1016.6 |
| 20260505224517 | 62 | 180 | 2.0 | 5.0 | 0.00 | 0.00 | 0.00 | 81 | 1016.7 |
| 20260505224017 | 62 | 180 | 3.0 | 5.0 | 0.00 | 0.00 | 0.00 | 81 | 1016.7 |
| 20260505223517 | 62 | 180 | 2.0 | 4.0 | 0.00 | 0.00 | 0.00 | 81 | 1016.8 |
| 20260505223017 | 62 | 180 | 3.0 | 5.0 | 0.00 | 0.00 | 0.00 | 81 | 1016.8 |
| 20260505222517 | 62 | 180 | 3.0 | 6.0 | 0.00 | 0.00 | 0.00 | 81 | 1016.9 |
| 20260505222037 | 62 | 180 | 3.0 | 9.0 | 0.00 | 0.00 | 0.00 | 82 | 1016.9 |
| 20260505221517 | 62 | 158 | 4.0 | 9.0 | 0.00 | 0.00 | 0.00 | 82 | 1016.9 |
| 20260505221017 | 62 | 203 | 3.0 | 6.0 | 0.00 | 0.00 | 0.00 | 82 | 1017.0 |
| 20260505220517 | 62 | 203 | 4.0 | 10.0 | 0.00 | 0.00 | 0.00 | 82 | 1017.0 |
| 20260505220017 | 62 | 203 | 3.0 | 7.0 | 0.00 | 0.00 | 0.00 | 83 | 1017.0 |
| 20260505215516 | 62 | 203 | 3.0 | 7.0 | 0.00 | 0.00 | 0.00 | 83 | 1017.2 |
| 20260505215017 | 62 | 180 | 2.0 | 4.0 | 0.00 | 0.00 | 0.00 | 83 | 1017.0 |
| 20260505214517 | 62 | 203 | 3.0 | 5.0 | 0.00 | 0.00 | 0.00 | 83 | 1017.1 |
| 20260505214017 | 62 | 158 | 3.0 | 5.0 | 0.00 | 0.00 | 0.00 | 83 | 1017.2 |
| 20260505213517 | 62 | 180 | 5.0 | 10.0 | 0.00 | 0.00 | 0.00 | 83 | 1017.1 |
| 20260505213016 | 62 | 158 | 4.0 | 7.0 | 0.00 | 0.00 | 0.00 | 83 | 1017.1 |
| 20260505212516 | 62 | 135 | 3.0 | 7.0 | 0.00 | 0.00 | 0.00 | 83 | 1017.1 |
| 20260505212017 | 62 | 135 | 3.0 | 6.0 | 0.00 | 0.00 | 0.00 | 83 | 1017.1 |
| 20260505211517 | 62 | 180 | 3.0 | 5.0 | 0.00 | 0.00 | 0.00 | 82 | 1017.1 |
| 20260505211016 | 62 | 158 | 3.0 | 7.0 | 0.00 | 0.00 | 0.00 | 82 | 1017.2 |
| 20260505210516 | 62 | 180 | 3.0 | 5.0 | 0.00 | 0.00 | 0.00 | 83 | 1017.2 |
| 20260505210017 | 62 | 180 | 3.0 | 5.0 | 0.00 | 0.00 | 0.00 | 83 | 1017.3 |
| 20260505205517 | 62 | 158 | 5.0 | 10.0 | 0.00 | 0.00 | 0.00 | 83 | 1017.3 |
| 20260505205016 | 62 | 180 | 3.0 | 6.0 | 0.00 | 0.00 | 0.00 | 83 | 1017.4 |
| 20260505204517 | 62 | 180 | 5.0 | 10.0 | 0.00 | 0.00 | 0.00 | 83 | 1017.4 |
| 20260505204017 | 62 | 180 | 6.0 | 10.0 | 0.00 | 0.00 | 0.00 | 83 | 1017.4 |
| 20260505203516 | 62 | 158 | 4.0 | 7.0 | 0.00 | 0.00 | 0.00 | 83 | 1017.4 |
| 20260505203036 | 62 | 158 | 4.0 | 9.0 | 0.00 | 0.00 | 0.00 | 83 | 1017.4 |
| 20260505202536 | 62 | 158 | 4.0 | 7.0 | 0.00 | 0.00 | 0.00 | 83 | 1017.5 |
| 20260505202016 | 62 | 158 | 3.0 | 9.0 | 0.00 | 0.00 | 0.00 | 83 | 1017.5 |
| 20260505201516 | 62 | 180 | 5.0 | 9.0 | 0.00 | 0.00 | 0.00 | 83 | 1017.5 |
| 20260505201016 | 62 | 180 | 5.0 | 7.0 | 0.00 | 0.00 | 0.00 | 83 | 1017.6 |
| 20260505200516 | 62 | 180 | 4.0 | 6.0 | 0.00 | 0.00 | 0.00 | 83 | 1017.6 |
| 20260505200016 | 62 | 158 | 3.0 | 5.0 | 0.00 | 0.00 | 0.00 | 83 | 1017.6 |